This demonstration page uses our WeatherBlox Daily Observations layout. Learn more.

38.89511, -77.03637

Hourly Observations for June 16, 2015

Temp ( °F °C ) Dew Point ( °F °C ) Humidity (%) Winds ( mph kmh ) Pressure ( in mb ) Visibility ( mi km ) Precip ( " mm )
12:52 am 00:52 Partly Cloudy 79 26 73 23 84 84 Calm 30 1016 10 16.09344 0 0
1:52 am 01:52 Mostly Clear 79 26 73 23 84 84 SSW 5 7 29.97 1015 10 16.09344 0 0
2:52 am 02:52 Mostly Cloudy 79 26 73 23 84 84 S 5 7 29.97 1015 10 16.09344 0 0
3:52 am 03:52 Mostly Cloudy 79 26 73 23 84 84 SSW 3 6 29.94 1014 10 16.09344 0 0
4:52 am 04:52 Mostly Cloudy 77 25 73 23 89 89 SSW 7 11 29.94 1014 10 16.09344 0 0
5:52 am 05:52 Mostly Cloudy 79 26 73 23 84 84 SW 3 6 29.94 1014 10 16.09344 0 0
6:52 am 06:52 Mostly Cloudy 79 26 73 23 84 84 SSW 3 6 29.94 1014 10 16.09344 0 0
7:52 am 07:52 Mostly Cloudy 82 28 73 23 74 74 SSW 5 7 29.94 1014 10 16.09344 0 0
8:52 am 08:52 Mostly Cloudy 82 28 75 24 79 79 S 8 13 29.97 1015 10 16.09344 0 0
9:52 am 09:52 Mostly Cloudy 88 31 75 24 66 66 S 9 15 29.94 1014 10 16.09344 0 0
10:52 am 10:52 Partly Cloudy 91 33 75 24 59 59 S 7 11 29.91 1013 10 16.09344 0 0
11:26 am 11:26 Mostly Cloudy 93 34 70 21 47 47 W 13 20 29.94 1014 10 16.09344 0 0
11:52 am 11:52 Mostly Cloudy 95 35 72 22 47 47 W 10 17 29.91 1013 10 16.09344 0 0
12:52 pm 12:52 Mostly Cloudy 93 34 72 22 49 49 W 12 19 29.94 1014 10 16.09344 0 0
1:52 pm 13:52 Mostly Cloudy 93 34 72 22 49 49 N 12 19 29.91 1013 10 16.09344 0 0
2:52 pm 14:52 Mostly Cloudy 95 35 70 21 44 44 WNW 14 22 29.91 1013 10 16.09344 0 0
3:52 pm 15:52 Mostly Cloudy 95 35 70 21 44 44 W 16 26 29.91 1013 10 16.09344 0 0
4:52 pm 16:52 Mostly Cloudy 95 35 68 20 41 41 WNW 16 26 29.88 1012 10 16.09344 0 0
5:52 pm 17:52 Sunny 93 34 68 20 44 44 WNW 16 26 29.91 1013 10 16.09344 0 0
6:52 pm 18:52 Mostly Cloudy 91 33 68 20 46 46 NW 12 19 29.91 1013 10 16.09344 0 0
7:52 pm 19:52 Mostly Cloudy 88 31 66 19 49 49 WNW 14 22 29.94 1014 10 16.09344 0 0
8:52 pm 20:52 Mostly Cloudy 84 29 68 20 58 58 NW 8 13 29.97 1015 10 16.09344 0 0
9:52 pm 21:52 Mostly Cloudy 82 28 68 20 62 62 NW 10 17 30 1016 10 16.09344 0 0
10:52 pm 22:52 Mostly Cloudy 82 28 68 20 62 62 NW 10 17 30 1016 10 16.09344 0 0
11:52 pm 23:52 Mostly Cloudy 81 27 68 20 66 66 NNW 14 22 30 1016 10 16.09344 0 0

Powered by AerisWeather